Tracking 29487 objects as of 11-Sep-2024
HD Live streaming from Space Station
objects crossing your sky now

SL-14 R/B

Track SL-14 R/B now!
10-day predictions


NORAD ID: 16194
Int'l Code: 1985-100B
Perigee: 1,229.6 km
Apogee: 1,253.6 km
Inclination: 82.7 °
Period: 110.2 minutes
Semi major axis: 7612 km
RCS: 4.9928 m2 (large)
Launch date: October 24, 1985
Source: Commonwealth of Independent States (former USSR) (CIS)
Launch site: PLESETSK MISSILE AND SPACE COMPLEX (PKMTR)

Note: This is a ROCKET BODY
Your satellite tracking list
Your tracking list is empty




NASA's NSSDC Master Catalog

Two Line Element Set (TLE):
1 16194U 85100B   24255.16027194  .00000313  00000-0  90294-3 0  9997
2 16194  82.6548 344.7738 0015800 303.4689 102.0749 13.07082984854315
Source of the keplerian elements: AFSPC